map of BTH home
BTH - Airport
Location
City:  Batam, Batu Besar, Riau, Indonesia
Name:Hang Nadim
ICAO:WIDD
IATA:BTH

Details
Type:Airport (Aerodrome, Airfield)
Use:Public/Civil
Latitude:107'16"N (1.121028)
Longitude:10407'08"E (104.118753)
Datum:WGS 1984
Elevation:126 ft (38 m)
Variation:0.24E (WMM2015 magnetic declination)
-0.01 annual change
Runways:1
Longest:13256 × 148 ft (4040 × 45 m), paved

Time
Time Zone:UTC+7
Local Time:

Weather
METAR:WIDD 210930Z 12004KT 9999 TS FEW014CB FEW015 32/24 Q1010
TAF:WIDD 210500Z 2106/2206 16009KT 9000 SCT014 PROB30
TEMPO 2107/2111 6000 -RA BKN014

Related Locations
Nearby:
Farthest:TPN: 12426 mi / 19998 km
Tiputini, D, EC

Find:

   beyond  
but within

Other Information
Maps:
NOTAMs:
Links:
Sources:

  
  • flag of Indonesia
  • flag of Riau
  

Sectional Chart

Flight Planning
at skyvector.com

Satellite Image

Google Maps Satellite view

 

Copyright © 2004-2018 Karl L. Swartz. All rights reserved.
The Great Circle Mapper name and logo are trademarks of the Great Circle Mapper.
All other trademarks mentioned herein belong to their respective owners.
Please see credits for attibutions and further copyright information.

  Follow gcmap on Facebook Follow gcmap on Twitter Follow gcmap on Google+ GCmap on LinkedIn

hCard Microformat

Geo Microformat